Time,TemperatureF,DewpointF,PressureIn,WindDirection,WindDirectionDegrees,WindSpeedMPH,WindSpeedGustMPH,Humidity,HourlyPrecipIn,Conditions,Clouds,dailyrainin,SoftwareType,DateUTC
2013-07-13 00:13:00,67.3,64.0,30.09,NNE,25,0.0,0.0,89,0.00,,,0.00,weatherlink.com 1.10,2013-07-13 04:13:00,
2013-07-13 00:28:00,67.0,64.0,30.09,NNE,25,0.0,0.0,89,0.00,,,0.00,weatherlink.com 1.10,2013-07-13 04:28:00,
2013-07-13 00:43:00,66.7,63.0,30.10,NNE,25,0.0,0.0,89,0.00,,,0.00,weatherlink.com 1.10,2013-07-13 04:43:00,
2013-07-13 00:58:00,66.5,63.0,30.10,NNE,25,0.0,0.0,89,0.00,,,0.00,weatherlink.com 1.10,2013-07-13 04:58:00,
2013-07-13 01:13:00,66.2,63.0,30.11,NNE,25,0.0,0.0,89,0.00,,,0.00,weatherlink.com 1.10,2013-07-13 05:13:00,
2013-07-13 01:28:00,65.9,63.0,30.10,East,84,0.0,1.0,89,0.00,,,0.00,weatherlink.com 1.10,2013-07-13 05:28:00,
2013-07-13 01:43:00,65.8,63.0,30.10,East,84,0.0,0.0,89,0.00,,,0.00,weatherlink.com 1.10,2013-07-13 05:43:00,
2013-07-13 01:58:00,65.6,62.0,30.10,ENE,62,0.0,3.0,88,0.00,,,0.00,weatherlink.com 1.10,2013-07-13 05:58:00,
2013-07-13 02:13:00,65.7,62.0,30.09,ENE,62,0.0,0.0,87,0.00,,,0.00,weatherlink.com 1.10,2013-07-13 06:13:00,
2013-07-13 02:28:00,65.8,62.0,30.09,ENE,62,0.0,0.0,87,0.00,,,0.00,weatherlink.com 1.10,2013-07-13 06:28:00,
2013-07-13 02:43:00,65.7,62.0,30.09,ENE,62,0.0,0.0,87,0.00,,,0.00,weatherlink.com 1.10,2013-07-13 06:43:00,
2013-07-13 02:58:00,65.5,62.0,30.09,ENE,62,0.0,0.0,87,0.00,,,0.00,weatherlink.com 1.10,2013-07-13 06:58:00,
2013-07-13 03:13:00,65.2,61.0,30.09,ENE,62,0.0,0.0,87,0.00,,,0.00,weatherlink.com 1.10,2013-07-13 07:13:00,
2013-07-13 03:28:00,65.0,61.0,30.09,ENE,62,0.0,0.0,87,0.00,,,0.00,weatherlink.com 1.10,2013-07-13 07:28:00,
2013-07-13 03:43:00,64.9,61.0,30.09,ENE,62,0.0,0.0,87,0.00,,,0.00,weatherlink.com 1.10,2013-07-13 07:43:00,
2013-07-13 03:58:00,64.7,61.0,30.09,ENE,62,0.0,0.0,88,0.00,,,0.00,weatherlink.com 1.10,2013-07-13 07:58:00,
2013-07-13 04:13:00,64.3,61.0,30.10,ENE,62,0.0,0.0,88,0.00,,,0.00,weatherlink.com 1.10,2013-07-13 08:13:00,
2013-07-13 04:29:00,64.0,60.0,30.10,ENE,62,0.0,0.0,88,0.00,,,0.00,weatherlink.com 1.10,2013-07-13 08:29:00,
2013-07-13 04:44:00,63.6,60.0,30.11,ENE,62,0.0,0.0,89,0.00,,,0.00,weatherlink.com 1.10,2013-07-13 08:44:00,
2013-07-13 04:59:00,63.2,60.0,30.11,ENE,62,0.0,0.0,89,0.00,,,0.00,weatherlink.com 1.10,2013-07-13 08:59:00,
2013-07-13 05:14:00,63.0,60.0,30.10,ENE,62,0.0,0.0,89,0.00,,,0.00,weatherlink.com 1.10,2013-07-13 09:14:00,
2013-07-13 05:29:00,62.7,60.0,30.11,ENE,62,0.0,0.0,90,0.00,,,0.00,weatherlink.com 1.10,2013-07-13 09:29:00,
2013-07-13 05:44:00,62.5,60.0,30.11,ENE,62,0.0,0.0,90,0.00,,,0.00,weatherlink.com 1.10,2013-07-13 09:44:00,
2013-07-13 05:59:00,62.2,59.0,30.12,ENE,62,0.0,0.0,90,0.00,,,0.00,weatherlink.com 1.10,2013-07-13 09:59:00,
2013-07-13 06:14:00,62.1,59.0,30.13,ENE,62,0.0,0.0,90,0.00,,,0.00,weatherlink.com 1.10,2013-07-13 10:14:00,
2013-07-13 06:29:00,62.0,59.0,30.14,ENE,62,0.0,0.0,90,0.00,,,0.00,weatherlink.com 1.10,2013-07-13 10:29:00,
2013-07-13 06:44:00,61.8,59.0,30.14,ENE,62,0.0,0.0,90,0.00,,,0.00,weatherlink.com 1.10,2013-07-13 10:44:00,
2013-07-13 06:59:00,61.8,59.0,30.14,ENE,62,0.0,0.0,90,0.00,,,0.00,weatherlink.com 1.10,2013-07-13 10:59:00,
2013-07-13 07:14:00,62.0,59.0,30.15,ENE,62,0.0,0.0,90,0.00,,,0.00,weatherlink.com 1.10,2013-07-13 11:14:00,
2013-07-13 07:29:00,62.4,60.0,30.15,ENE,62,0.0,0.0,90,0.00,,,0.00,weatherlink.com 1.10,2013-07-13 11:29:00,
2013-07-13 07:44:00,63.0,60.0,30.15,ENE,62,0.0,2.0,89,0.00,,,0.00,weatherlink.com 1.10,2013-07-13 11:44:00,
2013-07-13 07:59:00,63.8,61.0,30.16,ENE,62,0.0,1.0,89,0.00,,,0.00,weatherlink.com 1.10,2013-07-13 11:59:00,
2013-07-13 08:14:00,65.2,62.0,30.16,NNE,19,0.0,2.0,90,0.00,,,0.00,weatherlink.com 1.10,2013-07-13 12:14:00,
2013-07-13 08:29:00,67.3,64.0,30.16,NE,55,0.0,3.0,88,0.00,,,0.00,weatherlink.com 1.10,2013-07-13 12:29:00,
2013-07-13 08:44:00,69.2,65.0,30.16,ENE,58,0.0,4.0,85,0.00,,,0.00,weatherlink.com 1.10,2013-07-13 12:44:00,
2013-07-13 08:59:00,70.7,64.0,30.16,ENE,66,0.0,3.0,80,0.00,,,0.00,weatherlink.com 1.10,2013-07-13 12:59:00,
2013-07-13 09:14:00,72.1,65.0,30.16,NE,54,1.0,4.0,78,0.00,,,0.00,weatherlink.com 1.10,2013-07-13 13:14:00,
2013-07-13 09:29:00,73.6,66.0,30.16,East,93,0.0,3.0,76,0.00,,,0.00,weatherlink.com 1.10,2013-07-13 13:29:00,
2013-07-13 09:44:00,74.5,66.0,30.15,ENE,77,0.0,4.0,74,0.00,,,0.00,weatherlink.com 1.10,2013-07-13 13:44:00,
2013-07-13 09:59:00,75.5,66.0,30.16,NE,36,1.0,4.0,72,0.00,,,0.00,weatherlink.com 1.10,2013-07-13 13:59:00,
2013-07-13 10:14:00,76.9,67.0,30.15,NE,54,0.0,3.0,71,0.00,,,0.00,weatherlink.com 1.10,2013-07-13 14:14:00,
2013-07-13 10:29:00,77.3,67.0,30.15,NE,55,1.0,5.0,71,0.00,,,0.00,weatherlink.com 1.10,2013-07-13 14:29:00,
2013-07-13 10:44:00,77.9,67.0,30.15,North,359,1.0,5.0,68,0.00,,,0.00,weatherlink.com 1.10,2013-07-13 14:44:00,
2013-07-13 11:00:00,77.8,67.0,30.15,ESE,118,2.0,6.0,69,0.00,,,0.00,weatherlink.com 1.10,2013-07-13 15:00:00,
2013-07-13 11:15:00,78.3,68.0,30.15,NNE,29,1.0,4.0,70,0.00,,,0.00,weatherlink.com 1.10,2013-07-13 15:15:00,
2013-07-13 11:30:00,78.6,67.0,30.15,ENE,75,1.0,6.0,68,0.00,,,0.00,weatherlink.com 1.10,2013-07-13 15:30:00,
2013-07-13 11:45:00,80.1,68.0,30.15,NE,39,0.0,4.0,67,0.00,,,0.00,weatherlink.com 1.10,2013-07-13 15:45:00,
2013-07-13 12:00:00,80.7,68.0,30.15,NE,48,4.0,7.0,65,0.00,,,0.00,weatherlink.com 1.10,2013-07-13 16:00:00,
2013-07-13 12:15:00,80.9,67.0,30.15,East,97,1.0,5.0,63,0.00,,,0.00,weatherlink.com 1.10,2013-07-13 16:15:00,
2013-07-13 12:30:00,81.5,69.0,30.15,North,359,1.0,7.0,66,0.00,,,0.00,weatherlink.com 1.10,2013-07-13 16:30:00,
2013-07-13 12:45:00,82.7,69.0,30.15,East,100,3.0,6.0,63,0.00,,,0.00,weatherlink.com 1.10,2013-07-13 16:45:00,
2013-07-13 13:00:00,82.7,69.0,30.15,East,85,3.0,4.0,64,0.00,,,0.00,weatherlink.com 1.10,2013-07-13 17:00:00,
2013-07-13 13:15:00,83.0,69.0,30.14,South,189,0.0,4.0,63,0.00,,,0.00,weatherlink.com 1.10,2013-07-13 17:15:00,
2013-07-13 13:30:00,82.3,68.0,30.14,NE,56,7.0,7.0,62,0.00,,,0.00,weatherlink.com 1.10,2013-07-13 17:30:00,
2013-07-13 13:45:00,82.9,69.0,30.14,East,95,3.0,4.0,63,0.00,,,0.00,weatherlink.com 1.10,2013-07-13 17:45:00,
2013-07-13 14:00:00,82.7,70.0,30.15,East,86,0.0,4.0,65,0.00,,,0.00,weatherlink.com 1.10,2013-07-13 18:00:00,
2013-07-13 14:15:00,82.7,67.0,30.15,ENE,58,0.0,5.0,60,0.00,,,0.00,weatherlink.com 1.10,2013-07-13 18:15:00,
2013-07-13 14:30:00,83.2,66.0,30.14,NNE,14,1.0,7.0,57,0.00,,,0.00,weatherlink.com 1.10,2013-07-13 18:30:00,
2013-07-13 14:45:00,83.4,67.0,30.14,East,85,1.0,7.0,58,0.00,,,0.00,weatherlink.com 1.10,2013-07-13 18:45:00,
2013-07-13 15:00:00,84.5,68.0,30.14,East,85,2.0,7.0,58,0.00,,,0.00,weatherlink.com 1.10,2013-07-13 19:00:00,
2013-07-13 15:15:00,84.2,68.0,30.14,ESE,115,1.0,7.0,58,0.00,,,0.00,weatherlink.com 1.10,2013-07-13 19:15:00,
2013-07-13 15:30:00,83.5,70.0,30.14,ENE,70,2.0,7.0,63,0.00,,,0.00,weatherlink.com 1.10,2013-07-13 19:30:00,
2013-07-13 15:45:00,82.6,70.0,30.14,NNE,20,3.0,6.0,66,0.00,,,0.00,weatherlink.com 1.10,2013-07-13 19:45:00,
2013-07-13 16:00:00,81.7,68.0,30.14,NE,49,1.0,8.0,64,0.00,,,0.00,weatherlink.com 1.10,2013-07-13 20:00:00,
2013-07-13 16:15:00,81.6,70.0,30.14,North,11,6.0,8.0,67,0.00,,,0.00,weatherlink.com 1.10,2013-07-13 20:15:00,
2013-07-13 16:30:00,80.9,70.0,30.14,South,180,1.0,13.0,69,0.00,,,0.00,weatherlink.com 1.10,2013-07-13 20:30:00,
2013-07-13 16:45:00,80.5,69.0,30.14,NE,40,4.0,9.0,69,0.00,,,0.00,weatherlink.com 1.10,2013-07-13 20:45:00,
2013-07-13 17:00:00,80.2,69.0,30.14,North,8,5.0,11.0,69,0.00,,,0.00,weatherlink.com 1.10,2013-07-13 21:00:00,
2013-07-13 17:15:00,80.0,70.0,30.14,East,94,8.0,11.0,71,0.00,,,0.00,weatherlink.com 1.10,2013-07-13 21:15:00,
2013-07-13 17:30:00,80.3,69.0,30.13,East,95,6.0,7.0,69,0.00,,,0.00,weatherlink.com 1.10,2013-07-13 21:30:00,
2013-07-13 17:45:00,80.7,69.0,30.13,NE,37,4.0,11.0,68,0.00,,,0.00,weatherlink.com 1.10,2013-07-13 21:45:00,
2013-07-13 18:00:00,80.7,69.0,30.13,East,84,2.0,7.0,68,0.00,,,0.00,weatherlink.com 1.10,2013-07-13 22:00:00,
2013-07-13 18:15:00,81.2,69.0,30.14,NE,54,2.0,6.0,67,0.00,,,0.00,weatherlink.com 1.10,2013-07-13 22:15:00,
2013-07-13 18:30:00,81.4,69.0,30.13,NE,35,3.0,4.0,67,0.00,,,0.00,weatherlink.com 1.10,2013-07-13 22:30:00,
2013-07-13 18:45:00,81.2,70.0,30.13,NE,51,0.0,4.0,68,0.00,,,0.00,weatherlink.com 1.10,2013-07-13 22:45:00,
2013-07-13 19:00:00,81.1,70.0,30.14,ENE,71,3.0,5.0,68,0.00,,,0.00,weatherlink.com 1.10,2013-07-13 23:00:00,
2013-07-13 19:15:00,81.1,70.0,30.14,East,87,0.0,3.0,68,0.00,,,0.00,weatherlink.com 1.10,2013-07-13 23:15:00,
2013-07-13 19:30:00,81.1,71.0,30.14,NW,317,2.0,3.0,71,0.00,,,0.00,weatherlink.com 1.10,2013-07-13 23:30:00,
2013-07-13 19:45:00,80.9,71.0,30.14,NNW,335,0.0,0.0,72,0.00,,,0.00,weatherlink.com 1.10,2013-07-13 23:45:00,
2013-07-13 20:00:00,79.9,71.0,30.14,NNW,335,0.0,2.0,73,0.00,,,0.00,weatherlink.com 1.10,2013-07-14 00:00:00,
2013-07-13 20:15:00,79.1,71.0,30.14,NNW,335,0.0,2.0,75,0.00,,,0.00,weatherlink.com 1.10,2013-07-14 00:15:00,
2013-07-13 20:30:00,78.7,71.0,30.14,NNW,335,0.0,0.0,76,0.00,,,0.00,weatherlink.com 1.10,2013-07-14 00:30:00,
2013-07-13 20:45:00,78.2,70.0,30.14,NNW,335,0.0,0.0,77,0.00,,,0.00,weatherlink.com 1.10,2013-07-14 00:45:00,
2013-07-13 21:00:00,77.4,70.0,30.15,NNW,335,0.0,1.0,78,0.00,,,0.00,weatherlink.com 1.10,2013-07-14 01:00:00,
2013-07-13 21:15:00,76.6,69.0,30.15,East,95,0.0,2.0,78,0.00,,,0.00,weatherlink.com 1.10,2013-07-14 01:15:00,
2013-07-13 21:30:00,76.2,69.0,30.15,ESE,102,0.0,0.0,78,0.00,,,0.00,weatherlink.com 1.10,2013-07-14 01:30:00,
2013-07-13 21:45:00,75.8,69.0,30.16,ESE,102,0.0,0.0,79,0.00,,,0.00,weatherlink.com 1.10,2013-07-14 01:45:00,
2013-07-13 22:00:00,75.5,69.0,30.17,ESE,102,0.0,0.0,80,0.00,,,0.00,weatherlink.com 1.10,2013-07-14 02:00:00,
2013-07-13 22:15:00,75.0,69.0,30.17,ESE,102,0.0,0.0,81,0.00,,,0.00,weatherlink.com 1.10,2013-07-14 02:15:00,
2013-07-13 22:30:00,74.7,69.0,30.18,ESE,102,0.0,0.0,82,0.00,,,0.00,weatherlink.com 1.10,2013-07-14 02:30:00,
2013-07-13 22:45:00,74.4,69.0,30.18,ESE,102,0.0,0.0,82,0.00,,,0.00,weatherlink.com 1.10,2013-07-14 02:45:00,
2013-07-13 23:00:00,74.0,69.0,30.18,ESE,102,0.0,0.0,83,0.00,,,0.00,weatherlink.com 1.10,2013-07-14 03:00:00,
2013-07-13 23:15:00,73.5,68.0,30.18,ESE,102,0.0,0.0,84,0.00,,,0.00,weatherlink.com 1.10,2013-07-14 03:15:00,
2013-07-13 23:30:00,73.3,69.0,30.18,ESE,103,0.0,0.0,85,0.00,,,0.00,weatherlink.com 1.10,2013-07-14 03:30:00,
2013-07-13 23:45:00,72.9,68.0,30.18,ESE,102,0.0,0.0,85,0.00,,,0.00,weatherlink.com 1.10,2013-07-14 03:45:00,